TimeMST,TemperatureF,Dew PointF,Humidity,Sea Level PressureIn,VisibilityMPH,Wind Direction,Wind SpeedMPH,Gust SpeedMPH,PrecipitationIn,Events,Conditions,WindDirDegrees,DateUTC
12:53 AM,24.1,12.0,60,30.37,10.0,WSW,6.9,-,N/A,,Clear,250,2013-01-17 07:53:00
1:53 AM,28.0,12.9,53,30.38,10.0,WSW,6.9,-,N/A,,Clear,250,2013-01-17 08:53:00
2:53 AM,27.0,12.9,56,30.39,10.0,SW,4.6,-,N/A,,Clear,230,2013-01-17 09:53:00
3:53 AM,25.0,12.0,58,30.39,10.0,Variable,6.9,-,N/A,,Clear,0,2013-01-17 10:53:00
4:53 AM,26.1,12.0,55,30.39,10.0,SSW,4.6,-,N/A,,Clear,210,2013-01-17 11:53:00
5:53 AM,28.0,12.9,53,30.40,10.0,WSW,5.8,-,N/A,,Clear,240,2013-01-17 12:53:00
6:53 AM,25.0,12.0,58,30.41,10.0,WSW,6.9,-,N/A,,Clear,250,2013-01-17 13:53:00
7:53 AM,28.9,12.9,51,30.40,10.0,SW,5.8,-,N/A,,Clear,230,2013-01-17 14:53:00
8:53 AM,32.0,15.1,50,30.40,10.0,SSW,5.8,-,N/A,,Clear,200,2013-01-17 15:53:00
9:53 AM,36.0,19.0,50,30.39,10.0,West,3.5,-,N/A,,Clear,270,2013-01-17 16:53:00
10:53 AM,39.9,21.0,47,30.33,10.0,SSE,9.2,-,N/A,,Clear,160,2013-01-17 17:53:00
11:53 AM,39.9,23.0,51,30.30,10.0,SSE,8.1,-,N/A,,Clear,160,2013-01-17 18:53:00
12:53 PM,35.1,23.0,61,30.29,10.0,SSE,8.1,-,N/A,,Clear,150,2013-01-17 19:53:00
1:53 PM,37.9,25.0,60,30.24,10.0,SE,5.8,-,N/A,,Clear,140,2013-01-17 20:53:00
2:53 PM,39.0,23.0,53,30.23,10.0,Calm,Calm,-,N/A,,Clear,0,2013-01-17 21:53:00
3:53 PM,37.9,24.1,57,30.22,10.0,SSW,3.5,-,N/A,,Clear,200,2013-01-17 22:53:00
4:53 PM,33.1,21.9,64,30.22,10.0,Calm,Calm,-,N/A,,Clear,0,2013-01-17 23:53:00
5:53 PM,37.0,12.9,37,30.19,10.0,SW,5.8,-,N/A,,Clear,220,2013-01-18 00:53:00
6:53 PM,33.1,12.0,42,30.21,10.0,NNW,4.6,-,N/A,,Clear,330,2013-01-18 01:53:00
7:53 PM,34.0,12.0,40,30.19,10.0,WSW,4.6,-,N/A,,Clear,250,2013-01-18 02:53:00
8:53 PM,34.0,10.9,38,30.17,10.0,WSW,4.6,-,N/A,,Clear,240,2013-01-18 03:53:00
9:53 PM,32.0,10.9,42,30.15,10.0,WSW,9.2,-,N/A,,Clear,250,2013-01-18 04:53:00
10:53 PM,35.1,10.9,37,30.10,10.0,West,6.9,-,N/A,,Clear,260,2013-01-18 05:53:00
11:53 PM,37.9,10.9,33,30.07,10.0,SW,10.4,-,N/A,,Clear,230,2013-01-18 06:53:00